,,,PA_Meas_PMT16A,,PR_Meas_QMR101_102,,RH_Meas_QMH101,,SR_Meas_QMS101,,TA_Meas_QMH101,,GenWind,,GenWind,
date,time,status,PA,status,PR,status,RH,status,SR,status,TA,status,DirAvg,status,SpdAvg,
2011-02-21, 00:00:04,VALID,1004.67,VALID,0,VALID,92.0424,VALID,0,VALID,24.9671,VALID,234,VALID,0.185547,
2011-02-21, 00:01:04,VALID,1004.7,VALID,0,VALID,91.5389,VALID,0,VALID,24.9671,VALID,326,VALID,0.839063,
2011-02-21, 00:02:04,VALID,1004.7,VALID,0,VALID,91.4321,VALID,0,VALID,24.9866,VALID,324,VALID,0.212109,
2011-02-21, 00:03:04,VALID,1004.69,VALID,0,VALID,91.5466,VALID,0,VALID,25.0469,VALID,295,VALID,0.358203,
2011-02-21, 00:04:04,VALID,1004.68,VALID,0,VALID,91.2185,VALID,0,VALID,25.0663,VALID,4,VALID,0.811719,
2011-02-21, 00:05:04,VALID,1004.69,VALID,0,VALID,91.1804,VALID,0,VALID,25.0663,VALID,273,VALID,0.379687,
2011-02-21, 00:06:04,VALID,1004.67,VALID,0,VALID,91.0125,VALID,0,VALID,25.0644,VALID,287,VALID,0.813281,
2011-02-21, 00:07:04,VALID,1004.63,VALID,0,VALID,90.8371,VALID,0.100563,VALID,25.0625,VALID,286,VALID,0.194922,
2011-02-21, 00:08:04,VALID,1004.64,VALID,0,VALID,90.8066,VALID,0,VALID,25.0839,VALID,285,VALID,0.393359,
2011-02-21, 00:09:04,VALID,1004.62,VALID,0,VALID,90.86,VALID,0,VALID,25.0839,VALID,299,VALID,0.570313,
2011-02-21, 00:10:04,VALID,1004.61,VALID,0,VALID,90.6006,VALID,0,VALID,25.1034,VALID,283,VALID,0.94375,
2011-02-21, 00:11:04,VALID,1004.58,VALID,0,VALID,90.4709,VALID,0,VALID,25.1229,VALID,279,VALID,1.05156,
2011-02-21, 00:12:04,VALID,1004.55,VALID,0,VALID,90.1581,VALID,0.100563,VALID,25.1618,VALID,287,VALID,1.49922,
2011-02-21, 00:13:04,VALID,1004.56,VALID,0,VALID,90.0437,VALID,0,VALID,25.2007,VALID,313,VALID,0.338672,
2011-02-21, 00:14:04,VALID,1004.55,VALID,0,VALID,90.0437,VALID,0,VALID,25.2007,VALID,303,VALID,0.536719,
2011-02-21, 00:15:04,VALID,1004.54,VALID,0,VALID,90.0666,VALID,0,VALID,25.1813,VALID,312,VALID,0.782422,
2011-02-21, 00:16:04,VALID,1004.53,VALID,0,VALID,90.2649,VALID,0.100563,VALID,25.2221,VALID,321,VALID,0.553125,
2011-02-21, 00:17:04,VALID,1004.52,VALID,0,VALID,90.509,VALID,0,VALID,25.1813,VALID,327,VALID,0.199609,
2011-02-21, 00:18:04,VALID,1004.52,VALID,0,VALID,90.5624,VALID,0,VALID,25.1832,VALID,331,VALID,0.349609,
2011-02-21, 00:19:04,VALID,1004.5,VALID,0,VALID,90.8447,VALID,0,VALID,25.1423,VALID,347,VALID,0.107031,
2011-02-21, 00:20:04,VALID,1004.52,VALID,0,VALID,90.9744,VALID,0,VALID,25.1442,VALID,351,VALID,0.239063,
2011-02-21, 00:21:04,VALID,1004.5,VALID,0,VALID,91.2185,VALID,0,VALID,25.0839,VALID,270,VALID,0.335938,
2011-02-21, 00:22:04,VALID,1004.46,VALID,0,VALID,91.2109,VALID,0,VALID,25.0858,VALID,294,VALID,0.255859,
2011-02-21, 00:23:04,VALID,1004.42,VALID,0,VALID,91.3558,VALID,0,VALID,25.0644,VALID,295,VALID,0.195313,
2011-02-21, 00:24:04,VALID,1004.4,VALID,0,VALID,91.6686,VALID,0,VALID,25.0663,VALID,295,VALID,0.220313,
2011-02-21, 00:25:04,VALID,1004.38,VALID,0,VALID,91.6152,VALID,0,VALID,25.0255,VALID,295,VALID,0.0816406,
2011-02-21, 00:26:04,VALID,1004.37,VALID,0,VALID,91.8441,VALID,0,VALID,25.0274,VALID,295,VALID,0.113672,
2011-02-21, 00:27:04,VALID,1004.35,VALID,0,VALID,92.0043,VALID,0,VALID,25.006,VALID,282,VALID,0.311328,
2011-02-21, 00:28:04,VALID,1004.34,VALID,0,VALID,92.0424,VALID,0,VALID,24.9866,VALID,257,VALID,0.534766,
2011-02-21, 00:29:04,VALID,1004.34,VALID,0,VALID,92.0043,VALID,0,VALID,24.9866,VALID,285,VALID,0.510547,
2011-02-21, 00:30:04,VALID,1004.32,VALID,0,VALID,92.0882,VALID,0,VALID,24.9671,VALID,295,VALID,0.189063,
2011-02-21, 00:31:04,VALID,1004.31,VALID,0,VALID,92.0882,VALID,0.100563,VALID,24.9671,VALID,296,VALID,0.675781,
2011-02-21, 00:32:04,VALID,1004.29,VALID,0,VALID,92.0119,VALID,0,VALID,24.9671,VALID,301,VALID,0.496484,
2011-02-21, 00:33:04,VALID,1004.29,VALID,0,VALID,92.195,VALID,0,VALID,24.9866,VALID,309,VALID,0.132422,
2011-02-21, 00:34:04,VALID,1004.27,VALID,0,VALID,92.3018,VALID,0,VALID,24.9885,VALID,308,VALID,0.184766,
2011-02-21, 00:35:04,VALID,1004.24,VALID,0,VALID,92.4239,VALID,0,VALID,24.9671,VALID,348,VALID,0.174219,
2011-02-21, 00:36:04,VALID,1004.24,VALID,0,VALID,92.4315,VALID,0,VALID,24.9866,VALID,292,VALID,0.198047,
2011-02-21, 00:37:04,VALID,1004.26,VALID,0,VALID,92.5078,VALID,0,VALID,24.9671,VALID,330,VALID,0.579297,
2011-02-21, 00:38:04,VALID,1004.23,VALID,0,VALID,92.5993,VALID,0,VALID,25.0079,VALID,293,VALID,0.160156,
2011-02-21, 00:39:04,VALID,1004.21,VALID,0,VALID,92.7672,VALID,0.100563,VALID,24.9671,VALID,293,VALID,0.0113281,
2011-02-21, 00:40:04,VALID,1004.2,VALID,0,VALID,92.8816,VALID,0,VALID,24.9866,VALID,340,VALID,0.201172,
2011-02-21, 00:41:04,VALID,1004.19,VALID,0,VALID,92.7824,VALID,0,VALID,24.9866,VALID,319,VALID,0.392578,
2011-02-21, 00:42:04,VALID,1004.17,VALID,0,VALID,92.8053,VALID,0,VALID,24.9866,VALID,293,VALID,0.558203,
2011-02-21, 00:43:04,VALID,1004.15,VALID,0,VALID,92.7214,VALID,0,VALID,25.0079,VALID,292,VALID,0.387891,
2011-02-21, 00:44:04,VALID,1004.11,VALID,0,VALID,92.607,VALID,0.100563,VALID,25.0041,VALID,292,VALID,0.178516,
2011-02-21, 00:45:04,VALID,1004.09,VALID,0,VALID,92.6146,VALID,0,VALID,25.0255,VALID,322,VALID,0.455859,
2011-02-21, 00:46:04,VALID,1004.11,VALID,0,VALID,92.8053,VALID,0,VALID,25.0663,VALID,337,VALID,0.373437,
2011-02-21, 00:47:04,VALID,1004.1,VALID,0,VALID,92.6222,VALID,0,VALID,25.0858,VALID,278,VALID,0.635938,
2011-02-21, 00:48:04,VALID,1004.09,VALID,0,VALID,92.4315,VALID,0.100563,VALID,25.0644,VALID,295,VALID,0.732813,
2011-02-21, 00:49:04,VALID,1004.07,VALID,0,VALID,92.8969,VALID,0,VALID,25.0839,VALID,316,VALID,0.0527344,
2011-02-21, 00:50:04,VALID,1004.05,VALID,0,VALID,92.9198,VALID,0,VALID,25.1034,VALID,313,VALID,0.00820312,
2011-02-21, 00:51:04,VALID,1004.02,VALID,0,VALID,92.5154,VALID,0,VALID,25.1229,VALID,348,VALID,0.73125,
2011-02-21, 00:52:04,VALID,1004.06,VALID,0,VALID,92.6604,VALID,0,VALID,25.1637,VALID,324,VALID,0.367188,
2011-02-21, 00:53:04,VALID,1004.05,VALID,0,VALID,92.5307,VALID,0,VALID,25.1618,VALID,335,VALID,0.273438,
2011-02-21, 00:54:04,VALID,1004.07,VALID,0,VALID,92.6833,VALID,0,VALID,25.2027,VALID,263,VALID,0.733203,
2011-02-21, 00:55:04,VALID,1004.05,VALID,0,VALID,92.6451,VALID,0,VALID,25.2416,VALID,249,VALID,0.170703,
2011-02-21, 00:56:04,VALID,1004.05,VALID,0,VALID,92.4391,VALID,0,VALID,25.2202,VALID,290,VALID,0.557813,
2011-02-21, 00:57:04,VALID,1004.06,VALID,0,VALID,92.3018,VALID,0,VALID,25.2202,VALID,358,VALID,0.135547,
2011-02-21, 00:58:04,VALID,1004.09,VALID,0,VALID,92.0653,VALID,0,VALID,25.2611,VALID,354,VALID,0.0695312,
2011-02-21, 00:59:04,VALID,1004.08,VALID,0,VALID,92.34,VALID,0,VALID,25.2592,VALID,322,VALID,0.107031,
2011-02-21, 01:00:04,VALID,1004.09,VALID,0,VALID,92.2179,VALID,0,VALID,25.2397,VALID,349,VALID,0.344531,
2011-02-21, 01:01:04,VALID,1004.07,VALID,0,VALID,92.2713,VALID,0.100563,VALID,25.2592,VALID,349,VALID,0.0542969,
2011-02-21, 01:02:04,VALID,1004.03,VALID,0,VALID,92.3018,VALID,0,VALID,25.2397,VALID,349,VALID,0.283203,
2011-02-21, 01:03:04,VALID,1004.02,VALID,0,VALID,92.4773,VALID,0,VALID,25.2806,VALID,350,VALID,0.262891,
2011-02-21, 01:04:04,VALID,1003.99,VALID,0,VALID,92.5231,VALID,0,VALID,25.2592,VALID,352,VALID,0.884766,
2011-02-21, 01:05:04,VALID,1003.97,VALID,0,VALID,92.5154,VALID,0,VALID,25.2592,VALID,344,VALID,0.755859,
2011-02-21, 01:06:04,VALID,1003.93,VALID,0,VALID,92.5002,VALID,0,VALID,25.2806,VALID,333,VALID,0.410156,
2011-02-21, 01:07:04,VALID,1003.88,VALID,0,VALID,92.5917,VALID,0,VALID,25.2981,VALID,277,VALID,0.669531,
2011-02-21, 01:08:04,VALID,1003.84,VALID,0,VALID,92.1492,VALID,0,VALID,25.337,VALID,288,VALID,1.04961,
2011-02-21, 01:09:04,VALID,1003.8,VALID,0,VALID,91.7983,VALID,0,VALID,25.376,VALID,336,VALID,0.510156,
2011-02-21, 01:10:04,VALID,1003.73,VALID,0,VALID,91.867,VALID,0,VALID,25.3955,VALID,343,VALID,0.583203,
2011-02-21, 01:11:04,VALID,1003.68,VALID,0,VALID,91.8288,VALID,0,VALID,25.4169,VALID,358,VALID,0.00234375,
2011-02-21, 01:12:04,VALID,1003.64,VALID,0,VALID,92.2179,VALID,0,VALID,25.3955,VALID,358,VALID,0,
2011-02-21, 01:13:04,VALID,1003.61,VALID,0,VALID,92.2027,VALID,0,VALID,25.376,VALID,358,VALID,0.729688,
2011-02-21, 01:14:04,VALID,1003.55,VALID,0,VALID,92.0272,VALID,0,VALID,25.3955,VALID,261,VALID,0.136328,
2011-02-21, 01:15:04,VALID,1003.53,VALID,0,VALID,91.8136,VALID,0,VALID,25.3955,VALID,324,VALID,0.56875,
2011-02-21, 01:16:04,VALID,1003.51,VALID,0,VALID,91.7144,VALID,0,VALID,25.3955,VALID,306,VALID,0.589844,
2011-02-21, 01:17:04,VALID,1003.47,VALID,0,VALID,91.8212,VALID,0,VALID,25.4149,VALID,281,VALID,1.01523,
2011-02-21, 01:18:04,VALID,1003.46,VALID,0,VALID,91.2796,VALID,0,VALID,25.4344,VALID,273,VALID,0.455078,
2011-02-21, 01:19:04,VALID,1003.41,VALID,0,VALID,90.9363,VALID,0,VALID,25.4928,VALID,288,VALID,1.07578,
2011-02-21, 01:20:04,VALID,1003.42,VALID,0,VALID,90.8066,VALID,0,VALID,25.5104,VALID,285,VALID,0.411719,
2011-02-21, 01:21:04,VALID,1003.36,VALID,0,VALID,90.776,VALID,0,VALID,25.5707,VALID,286,VALID,0.201562,
2011-02-21, 01:22:04,VALID,1003.36,VALID,0,VALID,90.7303,VALID,0,VALID,25.5902,VALID,321,VALID,0.348047,
2011-02-21, 01:23:04,VALID,1003.32,VALID,0,VALID,90.5319,VALID,0,VALID,25.6116,VALID,275,VALID,0.323828,
2011-02-21, 01:24:04,VALID,1003.32,VALID,0,VALID,90.4175,VALID,0,VALID,25.6292,VALID,311,VALID,0.524219,
2011-02-21, 01:25:04,VALID,1003.32,VALID,0,VALID,90.387,VALID,0,VALID,25.6486,VALID,341,VALID,0.172266,
2011-02-21, 01:26:04,VALID,1003.27,VALID,0,VALID,90.0132,VALID,0,VALID,25.67,VALID,296,VALID,0.146484,
2011-02-21, 01:27:04,VALID,1003.25,VALID,0,VALID,90.1429,VALID,0,VALID,25.67,VALID,296,VALID,0.221875,
2011-02-21, 01:28:04,VALID,1003.22,VALID,0,VALID,90.593,VALID,0.100563,VALID,25.6486,VALID,293,VALID,0.351563,
2011-02-21, 01:29:04,VALID,1003.2,VALID,0,VALID,89.9674,VALID,0,VALID,25.6486,VALID,329,VALID,1.04727,
2011-02-21, 01:30:04,VALID,1003.17,VALID,0,VALID,90.2573,VALID,0,VALID,25.6486,VALID,32,VALID,0.228516,
2011-02-21, 01:31:04,VALID,1003.14,VALID,0,VALID,90.242,VALID,0,VALID,25.6681,VALID,261,VALID,0.33125,
2011-02-21, 01:32:04,VALID,1003.11,VALID,0,VALID,90.0589,VALID,0,VALID,25.6681,VALID,285,VALID,0.292578,
2011-02-21, 01:33:04,VALID,1003.1,VALID,0,VALID,89.7843,VALID,0,VALID,25.6895,VALID,299,VALID,0.958203,
2011-02-21, 01:34:04,VALID,1003.06,VALID,0,VALID,89.1435,VALID,0,VALID,25.6876,VALID,309,VALID,1.15547,
2011-02-21, 01:35:04,VALID,1003.06,VALID,0,VALID,89.1053,VALID,0,VALID,25.746,VALID,329,VALID,0.662109,
2011-02-21, 01:36:04,VALID,1003.08,VALID,0,VALID,88.8154,VALID,0,VALID,25.785,VALID,266,VALID,0.567578,
2011-02-21, 01:37:04,VALID,1003.06,VALID,0,VALID,88.3043,VALID,0,VALID,25.8239,VALID,334,VALID,1.05859,
2011-02-21, 01:38:04,VALID,1003.06,VALID,0,VALID,88.3882,VALID,0,VALID,25.8843,VALID,330,VALID,0.532031,
2011-02-21, 01:39:04,VALID,1003.02,VALID,0,VALID,87.8771,VALID,0,VALID,25.8629,VALID,311,VALID,1.09258,
2011-02-21, 01:40:04,VALID,1003.02,VALID,0,VALID,87.2362,VALID,0,VALID,25.9232,VALID,338,VALID,1.33867,
2011-02-21, 01:41:04,VALID,1003,VALID,0,VALID,86.8243,VALID,0,VALID,25.9817,VALID,310,VALID,0.832031,
2011-02-21, 01:42:04,VALID,1002.98,VALID,0,VALID,86.4657,VALID,0,VALID,26.0012,VALID,305,VALID,0.796094,
2011-02-21, 01:43:04,VALID,1002.97,VALID,0,VALID,86.4276,VALID,0,VALID,26.0576,VALID,329,VALID,0.408984,
2011-02-21, 01:44:04,VALID,1002.98,VALID,0,VALID,86.6259,VALID,0,VALID,26.0576,VALID,314,VALID,0.71875,
2011-02-21, 01:45:04,VALID,1002.94,VALID,0,VALID,86.4734,VALID,0,VALID,26.0985,VALID,300,VALID,0.601563,
2011-02-21, 01:46:04,VALID,1002.9,VALID,0,VALID,86.8777,VALID,0,VALID,26.0791,VALID,4,VALID,0.810938,
2011-02-21, 01:47:04,VALID,1002.9,VALID,0,VALID,86.9769,VALID,0,VALID,26.0596,VALID,285,VALID,0.994141,
2011-02-21, 01:48:04,VALID,1002.87,VALID,0,VALID,86.3437,VALID,0,VALID,26.0187,VALID,287,VALID,0.994531,
2011-02-21, 01:49:04,VALID,1002.86,VALID,0,VALID,86.6259,VALID,0,VALID,26.0187,VALID,279,VALID,0.330078,
2011-02-21, 01:50:04,VALID,1002.85,VALID,0,VALID,86.687,VALID,0,VALID,25.9992,VALID,315,VALID,0.578125,
2011-02-21, 01:51:04,VALID,1002.87,VALID,0,VALID,87.1523,VALID,0,VALID,25.9797,VALID,296,VALID,1.09258,
2011-02-21, 01:52:04,VALID,1002.84,VALID,0,VALID,87.0379,VALID,0,VALID,26.0012,VALID,15,VALID,0.484766,
2011-02-21, 01:53:04,VALID,1002.86,VALID,0,VALID,87.5261,VALID,0,VALID,25.9797,VALID,3,VALID,0.791797,
2011-02-21, 01:54:04,VALID,1002.88,VALID,0,VALID,86.954,VALID,0,VALID,25.9797,VALID,323,VALID,0.811328,
2011-02-21, 01:55:04,VALID,1002.89,VALID,0,VALID,87.3049,VALID,0,VALID,25.9797,VALID,323,VALID,0.479688,
2011-02-21, 01:56:04,VALID,1002.9,VALID,0,VALID,87.755,VALID,0,VALID,25.9817,VALID,360,VALID,1.03203,
2011-02-21, 01:57:04,VALID,1002.92,VALID,0,VALID,88.2356,VALID,0,VALID,25.9602,VALID,360,VALID,0.180859,
2011-02-21, 01:58:04,VALID,1002.96,VALID,0,VALID,88.7315,VALID,0,VALID,25.9213,VALID,360,VALID,0.129688,
2011-02-21, 01:59:04,VALID,1002.96,VALID,0,VALID,88.8765,VALID,0,VALID,25.8823,VALID,355,VALID,0.382031,
2011-02-21, 02:00:04,VALID,1002.99,VALID,0,VALID,88.9985,VALID,0.100563,VALID,25.8629,VALID,347,VALID,0.652734,
2011-02-21, 02:01:04,VALID,1002.98,VALID,0,VALID,89.38,VALID,0,VALID,25.8434,VALID,353,VALID,0.113672,
2011-02-21, 02:02:04,VALID,1002.98,VALID,0,VALID,89.7919,VALID,0,VALID,25.785,VALID,343,VALID,0.430078,
2011-02-21, 02:03:04,VALID,1003.01,VALID,0,VALID,89.7767,VALID,0.100563,VALID,25.7655,VALID,6,VALID,0.303125,
2011-02-21, 02:04:04,VALID,1003.02,VALID,0,VALID,90.4022,VALID,0,VALID,25.746,VALID,7,VALID,0.102344,
2011-02-21, 02:05:04,VALID,1003.02,VALID,0,VALID,90.2954,VALID,0,VALID,25.7071,VALID,356,VALID,0.418359,
2011-02-21, 02:06:04,VALID,1003.02,VALID,0,VALID,90.3488,VALID,0,VALID,25.6876,VALID,357,VALID,0.14375,
2011-02-21, 02:07:04,VALID,1003.02,VALID,0,VALID,90.1963,VALID,0,VALID,25.6681,VALID,294,VALID,0.678125,
2011-02-21, 02:08:04,VALID,1003.05,VALID,0,VALID,90.6311,VALID,0,VALID,25.6486,VALID,346,VALID,0.329297,
2011-02-21, 02:09:04,VALID,1003.03,VALID,0,VALID,90.509,VALID,0,VALID,25.67,VALID,346,VALID,0.00429688,
2011-02-21, 02:10:04,VALID,1003.06,VALID,0,VALID,90.654,VALID,0,VALID,25.6486,VALID,347,VALID,0,
2011-02-21, 02:11:04,VALID,1003.04,VALID,0,VALID,90.4938,VALID,0,VALID,25.6506,VALID,340,VALID,0.329688,
2011-02-21, 02:12:04,VALID,1003.05,VALID,0,VALID,90.654,VALID,0,VALID,25.6292,VALID,310,VALID,0.355469,
2011-02-21, 02:13:04,VALID,1003.07,VALID,0,VALID,90.654,VALID,0,VALID,25.6292,VALID,2,VALID,0.705078,
2011-02-21, 02:14:04,VALID,1003.02,VALID,0,VALID,90.5319,VALID,0,VALID,25.6292,VALID,336,VALID,0.797656,
2011-02-21, 02:15:04,VALID,1003.05,VALID,0,VALID,90.715,VALID,0.100563,VALID,25.6681,VALID,302,VALID,0.103906,
2011-02-21, 02:16:04,VALID,1003.03,VALID,0,VALID,90.2725,VALID,0,VALID,25.6681,VALID,329,VALID,0.850391,
2011-02-21, 02:17:04,VALID,1002.99,VALID,0,VALID,90.2039,VALID,0,VALID,25.7071,VALID,353,VALID,0.395312,
2011-02-21, 02:18:04,VALID,1003,VALID,0,VALID,89.8301,VALID,0,VALID,25.7285,VALID,342,VALID,0.798047,
2011-02-21, 02:19:04,VALID,1002.98,VALID,0,VALID,90.036,VALID,0,VALID,25.7674,VALID,346,VALID,0.147266,
2011-02-21, 02:20:04,VALID,1002.99,VALID,0,VALID,90.181,VALID,0,VALID,25.7655,VALID,271,VALID,0.0804688,
2011-02-21, 02:21:04,VALID,1002.94,VALID,0,VALID,89.9826,VALID,0,VALID,25.7655,VALID,325,VALID,0.382422,
2011-02-21, 02:22:04,VALID,1002.94,VALID,0,VALID,89.5783,VALID,0,VALID,25.785,VALID,290,VALID,0.746094,
2011-02-21, 02:23:04,VALID,1002.93,VALID,0,VALID,89.5173,VALID,0,VALID,25.8044,VALID,292,VALID,0.411328,
2011-02-21, 02:24:04,VALID,1002.94,VALID,0,VALID,89.1511,VALID,0.100563,VALID,25.8434,VALID,293,VALID,0.635156,
2011-02-21, 02:25:04,VALID,1002.95,VALID,0,VALID,89.3723,VALID,0,VALID,25.8629,VALID,281,VALID,0.365625,
2011-02-21, 02:26:04,VALID,1002.92,VALID,0,VALID,88.8993,VALID,0,VALID,25.8823,VALID,283,VALID,0.883594,
2011-02-21, 02:27:04,VALID,1002.92,VALID,0,VALID,88.5942,VALID,0,VALID,25.9018,VALID,284,VALID,0.451172,
2011-02-21, 02:28:04,VALID,1002.91,VALID,0,VALID,88.8307,VALID,0,VALID,25.9427,VALID,285,VALID,0.00117188,
2011-02-21, 02:29:04,VALID,1002.94,VALID,0,VALID,88.7086,VALID,0,VALID,25.9408,VALID,290,VALID,0.266016,
2011-02-21, 02:30:04,VALID,1002.89,VALID,0,VALID,88.5103,VALID,0,VALID,25.9408,VALID,329,VALID,0.258984,
2011-02-21, 02:31:04,VALID,1002.84,VALID,0,VALID,88.5408,VALID,0,VALID,25.9622,VALID,330,VALID,0.498047,
2011-02-21, 02:32:04,VALID,1002.87,VALID,0,VALID,88.2738,VALID,0,VALID,25.9602,VALID,291,VALID,0.654688,
2011-02-21, 02:33:04,VALID,1002.86,VALID,0,VALID,88.1975,VALID,0,VALID,25.9797,VALID,307,VALID,0.917578,
2011-02-21, 02:34:04,VALID,1002.81,VALID,0,VALID,87.9228,VALID,0,VALID,26.0381,VALID,322,VALID,0.610937,
2011-02-21, 02:35:04,VALID,1002.85,VALID,0,VALID,87.5719,VALID,0,VALID,26.0576,VALID,292,VALID,0.767187,
2011-02-21, 02:36:04,VALID,1002.8,VALID,0,VALID,87.8084,VALID,0,VALID,26.0771,VALID,8,VALID,0.334375,
2011-02-21, 02:37:04,VALID,1002.82,VALID,0,VALID,87.5948,VALID,0,VALID,26.0771,VALID,9,VALID,0.29375,
2011-02-21, 02:38:04,VALID,1002.81,VALID,0,VALID,87.755,VALID,0,VALID,26.0985,VALID,270,VALID,0.999609,
2011-02-21, 02:39:04,VALID,1002.82,VALID,0,VALID,87.816,VALID,0,VALID,26.118,VALID,227,VALID,0.275391,
2011-02-21, 02:40:04,VALID,1002.86,VALID,0,VALID,86.7861,VALID,0,VALID,26.116,VALID,243,VALID,1.38672,
2011-02-21, 02:41:04,VALID,1002.81,VALID,0,VALID,88.968,VALID,0,VALID,26.3108,VALID,189,VALID,1.77773,
2011-02-21, 02:42:04,VALID,1002.85,VALID,0,VALID,90.3107,VALID,0,VALID,26.4472,VALID,227,VALID,3.77695,
2011-02-21, 02:43:04,VALID,1002.79,VALID,0,VALID,90.7913,VALID,0,VALID,26.5641,VALID,256,VALID,2.18945,
2011-02-21, 02:44:04,VALID,1002.82,VALID,0,VALID,90.2115,VALID,0,VALID,26.642,VALID,255,VALID,1.84883,
2011-02-21, 02:45:04,VALID,1002.81,VALID,0,VALID,90.2802,VALID,0,VALID,26.6809,VALID,245,VALID,0.78125,
2011-02-21, 02:46:04,VALID,1002.8,VALID,0,VALID,89.8224,VALID,0,VALID,26.7199,VALID,230,VALID,2.66172,
2011-02-21, 02:47:04,VALID,1002.77,VALID,0,VALID,90.4175,VALID,0,VALID,26.7394,VALID,241,VALID,1.98672,
2011-02-21, 02:48:04,VALID,1002.76,VALID,0,VALID,91.5542,VALID,0,VALID,26.7609,VALID,200,VALID,1.3457,
2011-02-21, 02:49:04,VALID,1002.77,VALID,0,VALID,90.3259,VALID,0,VALID,26.7219,VALID,247,VALID,1.79805,
2011-02-21, 02:50:04,VALID,1002.77,VALID,0,VALID,91.188,VALID,0,VALID,26.7024,VALID,252,VALID,1.19648,
2011-02-21, 02:51:04,VALID,1002.73,VALID,0,VALID,90.2344,VALID,0,VALID,26.7045,VALID,243,VALID,2.87852,
2011-02-21, 02:52:04,VALID,1002.72,VALID,0,VALID,91.0049,VALID,0,VALID,26.6809,VALID,231,VALID,2.06289,
2011-02-21, 02:53:04,VALID,1002.73,VALID,0,VALID,91.4092,VALID,0,VALID,26.7024,VALID,269,VALID,1.85781,
2011-02-21, 02:54:04,VALID,1002.71,VALID,0,VALID,90.9439,VALID,0,VALID,26.644,VALID,223,VALID,2.31719,
2011-02-21, 02:55:04,VALID,1002.75,VALID,0,VALID,91.0354,VALID,0,VALID,26.605,VALID,200,VALID,1.28203,
2011-02-21, 02:56:04,VALID,1002.74,VALID,0,VALID,91.2643,VALID,0.100563,VALID,26.5641,VALID,244,VALID,1.74336,
2011-02-21, 02:57:04,VALID,1002.7,VALID,0,VALID,90.6998,VALID,0,VALID,26.5466,VALID,238,VALID,2.175,
2011-02-21, 02:58:04,VALID,1002.73,VALID,0,VALID,90.5701,VALID,0,VALID,26.5466,VALID,237,VALID,1.82383,
2011-02-21, 02:59:04,VALID,1002.7,VALID,0,VALID,90.982,VALID,0,VALID,26.5056,VALID,202,VALID,1.42148,
2011-02-21, 03:00:05,VALID,1002.69,VALID,0,VALID,90.1276,VALID,0,VALID,26.4861,VALID,238,VALID,2.72422,
2011-02-21, 03:01:05,VALID,1002.62,VALID,0,VALID,89.296,VALID,0,VALID,26.5056,VALID,229,VALID,3.25039,
2011-02-21, 03:02:05,VALID,1002.63,VALID,0,VALID,89.5936,VALID,0,VALID,26.5446,VALID,234,VALID,1.75781,
2011-02-21, 03:03:05,VALID,1002.62,VALID,0,VALID,89.8301,VALID,0.100563,VALID,26.5446,VALID,245,VALID,1.55313,
2011-02-21, 03:04:05,VALID,1002.6,VALID,0,VALID,89.6088,VALID,0,VALID,26.5251,VALID,231,VALID,0.558984,
2011-02-21, 03:05:05,VALID,1002.59,VALID,0,VALID,88.4111,VALID,0.100563,VALID,26.4861,VALID,254,VALID,2.74609,
2011-02-21, 03:06:05,VALID,1002.59,VALID,0,VALID,88.434,VALID,0,VALID,26.5056,VALID,244,VALID,1.93047,
2011-02-21, 03:07:05,VALID,1002.62,VALID,0,VALID,88.4035,VALID,0,VALID,26.5251,VALID,234,VALID,1.77383,
2011-02-21, 03:08:05,VALID,1002.63,VALID,0,VALID,88.5255,VALID,0,VALID,26.5661,VALID,242,VALID,1.14492,
2011-02-21, 03:09:05,VALID,1002.64,VALID,0,VALID,88.7239,VALID,0,VALID,26.5855,VALID,224,VALID,2.57656,
2011-02-21, 03:10:05,VALID,1002.63,VALID,0,VALID,89.0367,VALID,0.100563,VALID,26.5855,VALID,246,VALID,1.73203,
2011-02-21, 03:11:05,VALID,1002.61,VALID,0,VALID,88.7315,VALID,0,VALID,26.5641,VALID,249,VALID,1.51484,
2011-02-21, 03:12:05,VALID,1002.62,VALID,0,VALID,88.8612,VALID,0.100563,VALID,26.5855,VALID,259,VALID,1.52188,
2011-02-21, 03:13:05,VALID,1002.66,VALID,0,VALID,89.1053,VALID,0.100563,VALID,26.5641,VALID,243,VALID,0.748438,
2011-02-21, 03:14:05,VALID,1002.66,VALID,0,VALID,89.4105,VALID,0,VALID,26.5641,VALID,243,VALID,0.789063,
2011-02-21, 03:15:05,VALID,1002.71,VALID,0,VALID,89.5859,VALID,0.100563,VALID,26.5641,VALID,248,VALID,1.18516,
2011-02-21, 03:16:05,VALID,1002.71,VALID,0,VALID,89.296,VALID,0.100563,VALID,26.5251,VALID,244,VALID,1.03906,
2011-02-21, 03:17:05,VALID,1002.71,VALID,0,VALID,89.1816,VALID,0,VALID,26.5251,VALID,238,VALID,1.77617,
2011-02-21, 03:18:05,VALID,1002.72,VALID,0,VALID,89.769,VALID,0.100563,VALID,26.5251,VALID,219,VALID,1.91328,
2011-02-21, 03:19:05,VALID,1002.75,VALID,0,VALID,90.0132,VALID,0,VALID,26.5251,VALID,214,VALID,1.20117,
2011-02-21, 03:20:05,VALID,1002.74,VALID,0,VALID,90.6235,VALID,0.100563,VALID,26.5251,VALID,239,VALID,0.960938,
2011-02-21, 03:21:05,VALID,1002.75,VALID,0,VALID,91.0583,VALID,0,VALID,26.5056,VALID,247,VALID,1.04102,
2011-02-21, 03:22:05,VALID,1002.7,VALID,0,VALID,91.394,VALID,0.100563,VALID,26.4861,VALID,230,VALID,0.925,
2011-02-21, 03:23:05,VALID,1002.71,VALID,0,VALID,91.7602,VALID,0,VALID,26.4472,VALID,198,VALID,0.574219,
2011-02-21, 03:24:05,VALID,1002.74,VALID,0,VALID,91.8212,VALID,0,VALID,26.4472,VALID,241,VALID,1.05313,
2011-02-21, 03:25:05,VALID,1002.72,VALID,0,VALID,91.6763,VALID,0,VALID,26.4492,VALID,235,VALID,1.32187,
2011-02-21, 03:26:05,VALID,1002.76,VALID,0,VALID,91.8822,VALID,0,VALID,26.3887,VALID,226,VALID,1.34883,
2011-02-21, 03:27:05,VALID,1002.79,VALID,0,VALID,92.0119,VALID,0,VALID,26.3887,VALID,243,VALID,1.3707,
2011-02-21, 03:28:05,VALID,1002.76,VALID,0,VALID,92.2408,VALID,0,VALID,26.4102,VALID,216,VALID,1.17305,
2011-02-21, 03:29:05,VALID,1002.78,VALID,0,VALID,92.2637,VALID,0,VALID,26.3887,VALID,256,VALID,1.42461,
2011-02-21, 03:30:05,VALID,1002.82,VALID,0,VALID,91.9509,VALID,0,VALID,26.4317,VALID,245,VALID,0.574609,
2011-02-21, 03:31:05,VALID,1002.8,VALID,0,VALID,91.9662,VALID,0,VALID,26.3887,VALID,229,VALID,1.00625,
2011-02-21, 03:32:05,VALID,1002.84,VALID,0,VALID,91.8975,VALID,0,VALID,26.3907,VALID,225,VALID,1.05039,
2011-02-21, 03:33:05,VALID,1002.81,VALID,0,VALID,92.0424,VALID,0,VALID,26.4102,VALID,251,VALID,2.01289,
2011-02-21, 03:34:05,VALID,1002.85,VALID,0,VALID,92.2942,VALID,0,VALID,26.4102,VALID,240,VALID,0.755859,
2011-02-21, 03:35:05,VALID,1002.86,VALID,0,VALID,92.2789,VALID,0,VALID,26.3907,VALID,218,VALID,2.24414,
2011-02-21, 03:36:05,VALID,1002.86,VALID,0,VALID,92.3018,VALID,0,VALID,26.3907,VALID,263,VALID,0.602344,
2011-02-21, 03:37:05,VALID,1002.88,VALID,0,VALID,91.928,VALID,0,VALID,26.3887,VALID,243,VALID,1.76992,
2011-02-21, 03:38:05,VALID,1002.87,VALID,0,VALID,91.6,VALID,0,VALID,26.3887,VALID,260,VALID,1.5168,
2011-02-21, 03:39:05,VALID,1002.88,VALID,0,VALID,92.0882,VALID,0,VALID,26.4082,VALID,298,VALID,0.508203,
2011-02-21, 03:40:05,VALID,1002.86,VALID,0,VALID,91.6457,VALID,0,VALID,26.3907,VALID,253,VALID,1.75,
2011-02-21, 03:41:05,VALID,1002.89,VALID,0,VALID,90.5396,VALID,0.100563,VALID,26.3887,VALID,234,VALID,1.86875,
2011-02-21, 03:42:05,VALID,1002.83,VALID,0,VALID,90.9286,VALID,0,VALID,26.4082,VALID,220,VALID,0.752344,
2011-02-21, 03:43:05,VALID,1002.84,VALID,0,VALID,90.7913,VALID,0.100563,VALID,26.4082,VALID,220,VALID,1.16992,